www.pogodaiklimat.ru

Погода и климат >> Архив погоды >> Пакистан >> Мохенджо-Даро


ПОГОДА в Мохенджо-Даро

  • Прогноз погоды в Мохенджо-Даро
  • Монитор погоды в Мохенджо-Даро

АРХИВ ПОГОДЫ в Мохенджо-Даро

Время (UTC), дата Ветер
(напр.,м/с)
 
Видим.   Явления Облачность Т
(С)
Тd
(С)
f
(%)
Тe
(С)
Тes
(С)
Комфортность P
(гПа)
Po
(гПа)
Тmin
(С)
Tmax
(С)
R
(мм)
R24
(мм)
S
(см)
09 12.08 ЮВ 2 4000 м 5/5 1050 м
[Cu Sc]
+32.5 +24.8 64 +46 +55 опасность
перегрева
999.8 993.4
12 12.08 ЮВ 1 4000 м 3/3 1050 м
[Cu Sc]
+33.5 +25.1 62 +48 +51 опасность
перегрева
998.9 993.2 +34.0
15 12.08 ЮВ 1 4000 м ясно +31.5 +24.4 66 +44 +44 опасность
перегрева
999.1 992.7
18 12.08 ЮВ 2 4000 м ясно +30.0 +25.1 75 +43 +43 опасность
перегрева
1000.3 993.9
21 12.08 ЮВ 2 4000 м ясно +27.5 +24.7 85 +39 +39 очень
душно
999.6 993.1
00 13.08 ЮВ 2 4000 м ясно +27.0 +24.9 88 +39 +39 очень
душно
999.3 993.4
03 13.08 ЮВ 1 4000 м ясно +28.5 +25.0 81 +41 +46 опасность
перегрева
999.5 993.7 +26.0
06 13.08 ЮВ 1 4000 м ясно +32.5 +24.8 64 +46 +67 опасность
перегрева
1000.0 993.6
09 13.08 ЮВ 2 4000 м ясно +35.5 +25.1 55 +49 +67 опасность
перегрева
999.0 992.7
12 13.08 ЮВ 3 4000 м ясно +36.0 +24.9 53 +49 +53 опасность
перегрева
998.1 992.5 +37.0
15 13.08 ЮВ 2 4000 м ясно +32.0 +25.0 67 +46 +46 опасность
перегрева
998.3 991.9
18 13.08 ЮВ 3 4000 м ясно +30.0 +25.1 75 +43 +43 опасность
перегрева
1000.7 994.3
21 13.08 ЮВ 2 4000 м ясно +28.0 +25.2 85 +41 +41 опасность
перегрева
999.8 993.4
00 14.08 ЮВ 3 4000 м ясно +27.0 +24.9 88 +39 +39 очень
душно
998.3 992.5
03 14.08 ЮВ 2 4000 м ясно +29.5 +25.3 78 +43 +47 опасность
перегрева
998.7 993.0 +26.5
06 14.08 ЮВ 1 4000 м ясно +34.0 +25.7 62 +49 +70 опасность
перегрева
999.8 993.5
09 14.08 ЮВ 1 4000 м ясно +36.0 +25.6 55 +51 +72 опасность
перегрева
999.0 992.7
12 14.08 ЮВ 1 4000 м ясно +36.5 +26.2 56 +53 +57 опасность
перегрева
998.2 992.6 +37.5
15 14.08 ЮВ 1 4000 м ясно +33.0 +26.1 67 +49 +49 опасность
перегрева
999.0 992.7
18 14.08 ЮВ 2 4000 м ясно +30.5 +25.6 75 +45 +45 опасность
перегрева
1000.8 994.4
21 14.08 ЮВ 2 4000 м ясно +28.5 +25.7 85 +42 +42 опасность
перегрева
1000.6 994.2
00 15.08 ЮВ 1 4000 м 3/0
[Ac trans]
+28.0 +25.9 88 +42 +42 опасность
перегрева
1000.1 994.2
03 15.08 ЮВ 1 4000 м 3/0
[Ac trans]
+30.0 +26.5 82 +46 +51 опасность
перегрева
1000.6 994.8 +27.0
06 15.08 штиль 0 4000 м ясно +34.0 +25.7 62 +49 +74 опасность
перегрева
1000.4 994.1
09 15.08 ЮВ 2 4000 м ясно +37.5 +25.8 51 +52 +70 опасность
перегрева
999.8 993.6
12 15.08 ЮВ 1 4000 м ясно +38.0 +25.6 49 +52 +57 опасность
перегрева
998.5 992.9 +39.0
15 15.08 ЮВ 1 4000 м ясно +34.5 +25.5 60 +49 +49 опасность
перегрева
998.4 992.1
18 15.08 ЮВ 2 4000 м ясно +31.5 +25.2 69 +45 +45 опасность
перегрева
999.3 992.9
21 15.08 ЮВ 1 4000 м ясно +29.5 +26.0 81 +44 +44 опасность
перегрева
999.3 992.9
00 16.08 ЮВ 1 4000 м ясно +28.0 +25.9 88 +42 +42 опасность
перегрева
998.9 993.1
03 16.08 ЮВ 1 4000 м ясно +29.0 +26.2 85 +44 +49 опасность
перегрева
998.7 992.9 +27.0
06 16.08 штиль 0 4000 м ясно +35.0 +26.8 63 +53 +77 опасность
перегрева
998.7 992.4
09 16.08 ЮВ 1 4000 м ясно +39.0 +26.0 48 +54 +75 опасность
перегрева
997.2 991.0
12 16.08 ЮВ 1 4000 м ясно +38.5 +25.4 48 +53 +57 опасность
перегрева
994.8 989.3 +39.5
15 16.08 ЮВ 2 4000 м 3/0
[Ac trans]
+35.0 +26.8 63 +53 +53 опасность
перегрева
995.5 989.2
18 16.08 ЮВ 3 4000 м ясно +32.0 +27.2 76 +50 +50 опасность
перегрева
997.0 990.7
21 16.08 ЮВ 3 4000 м ясно +29.5 +26.7 85 +46 +46 опасность
перегрева
996.7 990.3
00 17.08 ЮВ 3 4000 м ясно +28.5 +25.7 85 +42 +42 опасность
перегрева
996.8 991.1
03 17.08 ЮВ 1 4000 м ясно +29.5 +25.3 78 +43 +48 опасность
перегрева
997.5 991.8 +27.5
06 17.08 штиль 0 4000 м ясно +35.0 +25.3 57 +49 +73 опасность
перегрева
997.6 991.3
09 17.08 В 2 4000 м ясно +38.0 +26.4 52 +54 +72 опасность
перегрева
996.9 990.7
12 17.08 штиль 0 4000 м ясно +38.5 +26.2 50 +54 +59 опасность
перегрева
996.5 991.0 +39.5
15 17.08 штиль 0 4000 м ясно +35.0 +26.1 60 +51 +51 опасность
перегрева
996.3 990.0
18 17.08 ЮВ 4 4000 м ясно +32.0 +26.5 73 +49 +49 опасность
перегрева
998.9 992.5
21 17.08 ЮВ 3 4000 м ясно +30.0 +26.5 82 +46 +46 опасность
перегрева
998.6 992.2
00 18.08 ЮВ 2 4000 м ясно +28.0 +25.2 85 +41 +41 опасность
перегрева
998.8 993.0
03 18.08 ЮВ 2 4000 м ясно +30.0 +25.1 75 +43 +48 опасность
перегрева
999.9 994.1 +27.0
06 18.08 ЮВ 1 4000 м ясно +35.0 +26.1 60 +51 +72 опасность
перегрева
1000.8 994.5
09 18.08 штиль 0 4000 м ясно +38.0 +27.2 54 +56 +80 опасность
перегрева
999.9 993.7
12 18.08 ЮВ 2 4000 м ясно +38.0 +27.2 54 +56 +60 опасность
перегрева
998.8 993.2 +39.0
18 18.08 ЮВ 4 4000 м ясно +31.5 +26.7 76 +49 +49 опасность
перегрева
1001.1 994.7
21 18.08 ЮВ 3 4000 м ясно +29.5 +26.7 85 +46 +46 опасность
перегрева
1000.8 994.4
00 19.08 ЮВ 3 4000 м ясно +28.0 +25.2 85 +41 +41 опасность
перегрева
1001.0 995.2
03 19.08 ЮВ 2 4000 м 3/3 1050 м
[Cu Sc]
+29.5 +25.3 78 +43 +46 опасность
перегрева
1002.7 996.9 +27.0
06 19.08 ЮВ 1 4000 м ясно +34.5 +26.3 62 +51 +72 опасность
перегрева
1003.6 997.3

 

Местоположение метеостанции Мохенджо-Даро (Пакистан): широта 27.32 долгота 68.13 высота над уровнем моря 57 м.

В архиве по умолчанию представлена погода в Мохенджо-Даро за последнюю неделю. Архивные данные за месяц целиком и за предыдущие месяцы, начиная с января 2011 года, Вы можете получить, выбрав интересующий диапазон дат из раскрывающегося списка и нажав кнопку "Ввод!".


*Определитесь, кто Вы:
робот инопланетянин человек

Внимание! Время в таблицах - всемирное. Для получения местного времени необходимо прибавить поправку, которая равна 5 ч.

Смотрите также архив погоды в соседних городах и на ближайших метеорологических станциях:

Погода в Ларкане (Пакистан) (26 км)
Погода в Пад Идан (Пакистан) (52 км)
Погода в Суккуре (Пакистан) (77 км)
Погода в Рохри (Пакистан) (85 км)
Погода в Джейкобабаде (Пакистан) (114 км)
Погода в Навабшахе (Пакистан) (121 км)
Погода в Даду (Пакистан) (152 км)
Погода в Хуздаре (Пакистан) (158 км)
Погода в Мир Пур Кхас (Пакистан) (217 км)
Погода в Хайдарабате (Пакистан) (218 км)

Пояснения к столбцам:

Ветер - указаны скорость ветра в м/с - средняя за 10 мин, порывы в срок и между сроками (в фигурных скобках) и направление, откуда дует ветер: С - северный, СВ - северо-восточный, В - восточный, ЮВ - юго-восточный, Ю - южный, ЮЗ - юго-западный, З - западный, СЗ - северо-западный.
Видимость - горизонтальная дальность видимости в метрах или километрах. При видимости от 1 до 10 км при отсутствии осадков обычно наблюдается дымка, при ухудшении видимости до 1 км и менее - туман. В сухую погоду видимость может ухудшаться дымом, пылью или мглою.
Явления - указаны атмосферные явления, наблюдавшиеся в срок или в последний час перед сроком; фигурными скобками обозначены явления, наблюдавшиеся между сроками (за 1-3 часа до срока); квадратными скобками обозначены град или гололедные отложения с указанием их диаметра в мм.
Облачность - указаны через наклонную черту общая и нижняя облачность в баллах и высота нижней границы облаков в метрах; квадратными скобками обозначены формы облаков: Ci - перистые, Cs - перисто-слоистые, Cc - перисто-кучевые, Ac - высококучевые, As - высокослоистые, Sc - слоисто-кучевые, Ns - слоисто-дождевые, Cu - кучевые, Cb - кучево-дождевые. Подробнее классификацию облаков см. в Атласе облаков (PDF).
T - Температура воздуха - температура, измеренная на высоте 2 м над землей.
Td - Температура точки росы - температура, при понижении до которой содержащийся в воздухе водяной пар достигнет насыщения.
f - Относительная влажность воздуха - влажноcть воздуха, измеренная на высоте 2 м над землей.
Te - Эффективная температура - температура, которую ощущает одетый по сезону человек в тени. Характеристика душности погоды. При расчете учитывается влияние влажности воздуха и скорости ветра на теплоощущения человека.
Tes - Эффективная температура на солнце - температура, которую ощущает человек, с поправкой на солнечный нагрев. Характеристика знойности погоды. Зависит от высоты солнца над горизонтом, облачности и скорости ветра. Ночью, в пасмурную погоду, а также при ветре 12 м/с и более поправка равна нулю.
P - Атмосферное давление - приведенное к уровню моря атмосферное давление.
Po - Атмосферное давление - измеренное на уровне метеостанции атмосферное давление.
Tmin - Минимальная температура - минимум температуры воздуха на высоте 2 м над землей.
Tmax - Максимальная температура - максимум температуры воздуха на высоте 2 м над землей.
R - Количество осадков - Количество выпавших осадков за период времени, мм. При наведении курсора мыши на число - период времени, за который выпало указанное количество осадков.
R24 - Количество осадков - Количество выпавших осадков за 24 часа, мм.
S - Снежный покров - Высота снежного покрова, см. При наведении курсора мыши на число - состояние снежного покрова и степень покрытия местности в баллах.